Crane Lake, MN

5:41 AM CDT on March 27, 2017 (GMT -0500)
Crane Lake

Weather History for KCDD - September, 2013

Change the Weather History Date:

Sunday, September 8, 2013

  Actual Average Record
Temperature  
Mean Temperature 55 °F -  
Max Temperature 71 °F 69 °F 91 °F (2002)
Min Temperature 39 °F 48 °F 35 °F (2012)
Degree Days  
Heating Degree Days 10    
Growing Degree Days 5 (Base 50)    
Moisture  
Dew Point 49 °F    
Average Humidity 79    
Maximum Humidity 100    
Minimum Humidity 50    
Precipitation  
Precipitation 0.00 in - - ()
Sea Level Pressure  
Sea Level Pressure 30.09 in    
Wind  
Wind Speed 1 mph (SSE)    
Max Wind Speed 7 mph    
Max Gust Speed -    
Visibility 10 miles    
Events      
Averages and records for this station are not official NWS values.
T = Trace of Precipitation, MM = Missing Value Source: NWS Daily Summary

Daily Weather History Graph

Daily Weather History Graph

Search for Another Location

Airport or City:

Trip Planner

Search our weather history database for the weather conditions in past years. The results will help you decide how hot, cold, wet, or windy it might be!

Date:

Astronomy

Sep. 08, 2013 Rise Set
Actual Time 6:37 AM CDT 7:36 PM CDT
Civil Twilight 6:05 AM CDT 8:08 PM CDT
Nautical Twilight 5:27 AM CDT 8:46 PM CDT
Astronomical Twilight 4:47 AM CDT 9:26 PM CDT
Moon 10:15 AM CDT (9/8) 8:50 PM CDT (9/8)
Length of Visible Light 14h 02m
Length of Day
12h 58m
Waxing Crescent, 11% of the Moon is Illuminated
Sep 8
Waxing Crescent
Sep 12
First Quarter
Sep 19
Full
Sep 26
Last Quarter
Oct 4
New

Hourly Weather History & Observations

Time (CDT) Temp. Windchill Dew Point Humidity Pressure Visibility Wind Dir Wind Speed Gust Speed Precip Events Conditions
12:10 AM 46.4 °F - 44.6 °F 93% 30.17 in 10.0 mi Calm Calm - N/A   Clear
12:30 AM 46.4 °F - 44.6 °F 93% 30.18 in 10.0 mi Calm Calm - N/A   Clear
12:50 AM 46.4 °F - 42.8 °F 87% 30.18 in 10.0 mi Calm Calm - N/A   Clear
1:10 AM 46.4 °F 45.2 °F 44.6 °F 93% 30.18 in 10.0 mi SSE 3.5 mph - N/A   Clear
1:30 AM 46.4 °F - 44.6 °F 93% 30.19 in 10.0 mi Calm Calm - N/A   Clear
1:50 AM 44.6 °F - 42.8 °F 93% 30.18 in 10.0 mi Calm Calm - N/A   Clear
2:10 AM 44.6 °F - 42.8 °F 93% 30.18 in 10.0 mi Calm Calm - N/A   Clear
2:30 AM 44.6 °F - 42.8 °F 93% 30.17 in 10.0 mi Calm Calm - N/A   Clear
2:50 AM 44.6 °F - 42.8 °F 93% 30.17 in 10.0 mi Calm Calm - N/A   Clear
3:10 AM 42.8 °F - 41.0 °F 93% 30.17 in 10.0 mi Calm Calm - N/A   Clear
3:30 AM 42.8 °F - 41.0 °F 93% 30.17 in 10.0 mi Calm Calm - N/A   Clear
3:50 AM 42.8 °F - 41.0 °F 93% 30.17 in 4.0 mi Calm Calm - N/A   Clear
4:10 AM 42.8 °F - 41.0 °F 93% 30.18 in 10.0 mi Calm Calm - N/A   Clear
4:30 AM 42.8 °F - 39.2 °F 87% 30.17 in 10.0 mi Calm Calm - N/A   Clear
4:50 AM 42.8 °F - 39.2 °F 87% 30.18 in 10.0 mi Calm Calm - N/A   Clear
5:10 AM 41.0 °F - 39.2 °F 93% 30.18 in 10.0 mi Calm Calm - N/A   Clear
5:30 AM 41.0 °F - 39.2 °F 93% 30.18 in 10.0 mi Calm Calm - N/A   Clear
5:50 AM 41.0 °F - 39.2 °F 93% 30.18 in 10.0 mi Calm Calm - N/A   Clear
6:10 AM 39.2 °F - 39.2 °F 100% 30.17 in 10.0 mi Calm Calm - N/A   Clear
6:30 AM 39.2 °F - 37.4 °F 93% 30.17 in 10.0 mi Calm Calm - N/A   Clear
6:50 AM 39.2 °F - 39.2 °F 100% 30.18 in 3.0 mi Calm Calm - N/A   Clear
7:10 AM 41.0 °F - 39.2 °F 93% 30.18 in 10.0 mi Calm Calm - N/A   Clear
7:30 AM 42.8 °F - 41.0 °F 93% 30.18 in 10.0 mi Calm Calm - N/A   Clear
7:50 AM 44.6 °F - 42.8 °F 93% 30.18 in 10.0 mi Calm Calm - N/A   Clear
8:10 AM 46.4 °F - 46.4 °F 100% 30.17 in 10.0 mi Calm Calm - N/A   Clear
8:30 AM 50.0 °F - 48.2 °F 94% 30.17 in 10.0 mi SSE 3.5 mph - N/A   Clear
8:50 AM 51.8 °F - 51.8 °F 100% 30.17 in 10.0 mi Calm Calm - N/A   Clear
9:10 AM 55.4 °F - 55.4 °F 100% 30.17 in 10.0 mi Calm Calm - N/A   Clear
9:30 AM 57.2 °F - 53.6 °F 88% 30.17 in 10.0 mi SSE 3.5 mph - N/A   Clear
9:50 AM 59.0 °F - 55.4 °F 88% 30.16 in 10.0 mi SSE 4.6 mph - N/A   Clear
10:10 AM 60.8 °F - 53.6 °F 77% 30.15 in 10.0 mi SE 3.5 mph - N/A   Clear
10:30 AM 60.8 °F - 53.6 °F 77% 30.15 in 10.0 mi SSE 3.5 mph - N/A   Clear
10:50 AM 62.6 °F - 53.6 °F 72% 30.15 in 10.0 mi SSE 4.6 mph - N/A   Clear
11:10 AM 62.6 °F - 53.6 °F 72% 30.16 in 10.0 mi SE 3.5 mph - N/A   Clear
11:30 AM 64.4 °F - 53.6 °F 68% 30.16 in 10.0 mi SE 3.5 mph - N/A   Clear
11:50 AM 64.4 °F - 53.6 °F 68% 30.15 in 10.0 mi SE 4.6 mph - N/A   Clear
12:10 PM 66.2 °F - 53.6 °F 64% 30.13 in 10.0 mi South 6.9 mph - N/A   Clear
12:30 PM 66.2 °F - 51.8 °F 60% 30.11 in 10.0 mi SE 3.5 mph - N/A   Clear
12:50 PM 68.0 °F - 51.8 °F 56% 30.11 in 10.0 mi SSE 5.8 mph - N/A   Scattered Clouds
1:10 PM 66.2 °F - 51.8 °F 60% 30.10 in 10.0 mi SSE 5.8 mph - N/A   Scattered Clouds
1:30 PM 69.8 °F - 53.6 °F 56% 30.09 in 10.0 mi SE 4.6 mph - N/A   Scattered Clouds
1:50 PM 69.8 °F - 51.8 °F 53% 30.08 in 10.0 mi SSE 4.6 mph - N/A   Scattered Clouds
2:10 PM 68.0 °F - 51.8 °F 56% 30.07 in 10.0 mi ESE 3.5 mph - N/A   Scattered Clouds
2:30 PM 69.8 °F - 51.8 °F 53% 30.07 in 10.0 mi South 5.8 mph - N/A   Clear
2:50 PM 69.8 °F - 51.8 °F 53% 30.05 in 10.0 mi South 4.6 mph - N/A   Clear
3:10 PM 68.0 °F - 51.8 °F 56% 30.05 in 10.0 mi SSE 4.6 mph - N/A   Clear
3:30 PM 68.0 °F - 51.8 °F 56% 30.04 in 10.0 mi SSE 5.8 mph - N/A   Clear
3:50 PM 69.8 °F - 53.6 °F 56% 30.03 in 10.0 mi South 6.9 mph - N/A   Scattered Clouds
4:10 PM 71.6 °F - 51.8 °F 50% 30.02 in 10.0 mi ESE 4.6 mph - N/A   Clear
4:30 PM 68.0 °F - 51.8 °F 56% 30.02 in 10.0 mi Calm Calm - N/A   Clear
4:50 PM 66.2 °F - 53.6 °F 64% 30.01 in 10.0 mi Calm Calm - N/A   Clear
5:10 PM 66.2 °F - 53.6 °F 64% 30.00 in 10.0 mi SSE 3.5 mph - N/A   Clear
5:30 PM 66.2 °F - 51.8 °F 60% 30.00 in 10.0 mi SSE 3.5 mph - N/A   Clear
5:50 PM 66.2 °F - 51.8 °F 60% 30.00 in 10.0 mi South 5.8 mph - N/A   Clear
6:10 PM 64.4 °F - 51.8 °F 64% 29.99 in 10.0 mi SSE 3.5 mph - N/A   Clear
6:30 PM 62.6 °F - 51.8 °F 68% 29.99 in 10.0 mi South 3.5 mph - N/A   Scattered Clouds
6:50 PM 62.6 °F - 50.0 °F 63% 29.98 in 10.0 mi Calm Calm - N/A   Overcast
7:10 PM 60.8 °F - 51.8 °F 72% 29.98 in 10.0 mi Calm Calm - N/A   Overcast
7:30 PM 60.8 °F - 51.8 °F 72% 29.98 in 10.0 mi Calm Calm - N/A   Overcast
7:50 PM 60.8 °F - 51.8 °F 72% 29.98 in 10.0 mi Calm Calm - N/A   Overcast
8:10 PM 60.8 °F - 51.8 °F 72% 29.97 in 10.0 mi Calm Calm - N/A   Overcast
8:30 PM 60.8 °F - 51.8 °F 72% 29.97 in 10.0 mi Calm Calm - N/A   Overcast
8:50 PM 59.0 °F - 51.8 °F 77% 29.96 in 10.0 mi Calm Calm - N/A   Overcast
9:10 PM 59.0 °F - 53.6 °F 82% 29.96 in 10.0 mi SSE 4.6 mph - N/A   Overcast
9:30 PM 57.2 °F - 53.6 °F 88% 29.95 in 10.0 mi Calm Calm - N/A   Overcast
9:50 PM 57.2 °F - 53.6 °F 88% 29.96 in 10.0 mi South 3.5 mph - N/A   Overcast
10:10 PM 57.2 °F - 53.6 °F 88% 29.95 in 10.0 mi South 3.5 mph - N/A   Overcast
10:30 PM 57.2 °F - 53.6 °F 88% 29.96 in 10.0 mi Calm Calm - N/A   Overcast
10:50 PM 57.2 °F - 53.6 °F 88% 29.94 in 10.0 mi Calm Calm - N/A   Overcast
11:10 PM 57.2 °F - 53.6 °F 88% 29.94 in 10.0 mi Calm Calm - N/A   Overcast
11:30 PM 57.2 °F - 53.6 °F 88% 29.93 in 10.0 mi SSE 4.6 mph - N/A   Overcast
11:50 PM 57.2 °F - 53.6 °F 88% 29.93 in 10.0 mi Calm Calm - N/A   Overcast